Location: Blackwall
(51.5097°N, 0.0016°W)
Time: 00:05:00
(UTC+00:00)

Cosmos 2333 Rocket - Pass Details

Date: 15 May 2026
Orbit: 840 x 862 km, 70.8° (Epoch: 9 June)

Event Time Altitude Azimuth Distance (km) Brightness Sun altitude
Rises 21:33:58 0° 326° (NW) 3,423 7.5 -12.9°
Reaches altitude 10° 21:36:31 10° 320° (NW) 2,487 6.1 -13.1°
Maximum altitude 21:41:54 44° 250° (WSW) 1,169 3.0 -13.6°
Enters shadow 21:46:30 14° 183° (S) 2,217 3.9 -13.9°
